Location: Poughquag
(41.6090°N, 73.6820°W)
Time: 12:42:34
(UTC-04:00)

Vanguard 1 - Pass Details

Date: 04 June 2020
Orbit: 650 x 3833 km, 34.2° (Epoch: 07 July)

Event Time Altitude Azimuth Distance (km) Brightness Sun altitude
Rises 04:49:09 0° 226° (SW) 5,169 - -5.8°
Exits shadow 04:50:45 - 223° (SW) 4,805 12.9 -5.6°
Reaches altitude 10° 04:52:06 10° 220° (SW) 4,520 12.8 -5.4°
Maximum altitude 05:05:08 50° 150° (SSE) 3,517 12.9 -3.4°
Drops below altitude 10° 05:25:47 10° 84° (E) 6,889 15.7 -0.2°
Sets 05:31:37 0° 80° (E) 7,979 16.3 0.8°
